This is the latest recevied weather packets stored in our database for station/object SP1BMW-13. If no packets are shown the sender has not sent any weather packets the latest 1 day(s).
| Time | Temp. | Humidity | Pressure | Rain* | Wind** | Luminosity | Snow |
|---|---|---|---|---|---|---|---|
| 1777979566 | 13.89° C | 88% | 1008.9 hPa | 0 mm | 0.45 m/s, 45° | 360 W/m² | - |
| 1777979507 | 13.89° C | 88% | 1008.9 hPa | 0 mm | 0.45 m/s, 32° | 322 W/m² | - |
| 1777979447 | 13.89° C | 89% | 1009.1 hPa | 0 mm | 0.89 m/s, 43° | 304 W/m² | - |
| 1777979387 | 13.89° C | 89% | 1008.9 hPa | 0 mm | 0.45 m/s, 42° | 299 W/m² | - |
| 1777979326 | 13.33° C | 90% | 1009.1 hPa | 0 mm | 0.45 m/s, 10° | 308 W/m² | - |
| 1777979266 | 13.33° C | 90% | 1009.1 hPa | 0 mm | 0.45 m/s, 38° | 284 W/m² | - |
| 1777979206 | 13.33° C | 89% | 1009.1 hPa | 0 mm | 0.89 m/s, 348° | 282 W/m² | - |
| 1777979146 | 13.33° C | 89% | 1009 hPa | 0 mm | 1.34 m/s, 67° | 270 W/m² | - |
| 1777979086 | 13.33° C | 89% | 1009 hPa | 0 mm | 0.89 m/s, 43° | 270 W/m² | - |
| 1777979027 | 13.33° C | 89% | 1008.9 hPa | 0 mm | 0.45 m/s, 50° | 271 W/m² | - |
| 1777978967 | 13.89° C | 89% | 1008.8 hPa | 0 mm | 0.89 m/s, 48° | 265 W/m² | - |
| 1777978907 | 13.89° C | 89% | 1008.9 hPa | 0 mm | 0.45 m/s, 39° | 271 W/m² | - |
| 1777978847 | 13.89° C | 89% | 1008.8 hPa | 0 mm | 0.89 m/s, 45° | 273 W/m² | - |
| 1777978787 | 13.89° C | 90% | 1008.9 hPa | 0 mm | 0.45 m/s, 11° | 263 W/m² | - |
| 1777978727 | 13.89° C | 91% | 1008.9 hPa | 0 mm | 0 m/s | 249 W/m² | - |
| 1777978667 | 13.33° C | 91% | 1009.1 hPa | 0 mm | 0 m/s | 244 W/m² | - |
| 1777978608 | 13.33° C | 91% | 1009 hPa | 0 mm | 0.45 m/s, 46° | 238 W/m² | - |
| 1777978546 | 13.33° C | 90% | 1009.1 hPa | 0 mm | 0.89 m/s, 41° | 237 W/m² | - |
| 1777978486 | 13.33° C | 90% | 1009 hPa | 0 mm | 0.45 m/s, 348° | 238 W/m² | - |
| 1777978427 | 13.33° C | 90% | 1008.8 hPa | 0 mm | 0.45 m/s, 38° | 241 W/m² | - |
| 1777978367 | 13.33° C | 90% | 1009 hPa | 0 mm | 0.45 m/s, 45° | 248 W/m² | - |
| 1777978307 | 13.33° C | 91% | 1009 hPa | 0 mm | 0.89 m/s, 36° | 255 W/m² | - |
| 1777978247 | 13.33° C | 90% | 1008.9 hPa | 0 mm | 0.45 m/s, 36° | 262 W/m² | - |
| 1777978187 | 13.33° C | 89% | 1009 hPa | 0 mm | 0.45 m/s, 33° | 270 W/m² | - |
| 1777978127 | 13.33° C | 89% | 1009 hPa | 0 mm | 1.34 m/s, 48° | 274 W/m² | - |
* Rain latest hour (hover to see other rain measurements)
** Current wind speed in m/s (hover to see current wind gust speed)